Location: Big Meadows
(38.5260°N, 78.4400°W)
Time: 22:39:09
(UTC-04:00)

Amateur Radio Satellites - All Passes

Search period start: 25 July 2016 22:09
Search period end: 26 July 2016 22:09
Location: Big Meadows, 38.5260°N, 78.4400°W

Satellite Date Start Highest point End Downlink Frequencies (MHz)
Time Altitude Azimuth
COMPASS 1 25 Jul 22:14:37 22:16:22 12° 269° (W) 22:18:05 437.405
ISS 25 Jul 22:22:05 22:25:19 86° 140° (SE) 22:28:35 145.825
PHONESAT 2.4 25 Jul 22:22:34 22:25:39 75° 197° (SSW) 22:28:43 2401.200-2431.200
ANTELSAT 25 Jul 22:25:00 22:27:18 14° 91° (E) 22:29:35 437.575/2403.000
YUBILEINY 25 Jul 22:28:52 22:37:26 57° 270° (W) 22:45:57 435.215
Oscar 11 25 Jul 22:40:17 22:43:34 21° 266° (W) 22:46:53 145.826/435.025
PRISM 25 Jul 22:45:45 22:49:08 25° 291° (WNW) 22:52:31 437.425
M-CUBED/EXP-1 PRIME 25 Jul 22:46:34 22:49:47 29° 259° (W) 22:53:16 437.505
AIST 2 25 Jul 22:48:58 22:52:37 30° 308° (NW) 22:56:18 435.215
TIGRISAT 25 Jul 23:05:35 23:09:52 36° 97° (E) 23:14:03 435.000
AO-85 25 Jul 23:05:57 23:09:47 28° 50° (NE) 23:13:22 145.980
AISAT 25 Jul 23:07:12 23:09:56 16° 65° (ENE) 23:12:40 437.250
O/OREOS (USA 219) 25 Jul 23:10:04 23:11:14 11° 307° (NW) 23:12:25 437.305
DX 1 25 Jul 23:13:34 23:15:37 13° 64° (ENE) 23:17:39 434.975-435.025
AUBIESAT-1 25 Jul 23:15:00 23:17:33 17° 263° (W) 23:20:14 437.475
Cosmos 2504 25 Jul 23:19:56 23:28:06 75° 267° (W) 23:35:39 435.465 / 435.565
DELFI C3 25 Jul 23:20:33 23:22:53 15° 267° (W) 23:25:12 145.870
UNISAT 6 25 Jul 23:21:10 23:25:46 58° 100° (E) 23:30:15 437.425
HUMSAT D 25 Jul 23:23:43 23:27:34 31° 263° (W) 23:31:26 437.325/437.525
UKube-1 25 Jul 23:29:48 23:32:22 16° 65° (ENE) 23:34:56 .
ESTCUBE 1 25 Jul 23:33:25 23:37:46 52° 73° (ENE) 23:42:08 437.505/2401.250
50 SAT 25 Jul 23:34:08 23:37:16 27° 71° (ENE) 23:40:24 437.505
QB50P1 25 Jul 23:40:13 23:42:08 13° 92° (E) 23:44:03 145.935-145.965
POPSAT HIP 1 25 Jul 23:46:02 23:48:29 15° 92° (E) 23:50:55 437.405
Cosmos 2491 25 Jul 23:50:09 23:57:47 33° 288° (WNW) 00:05:28 435.465 / 435.565
VELOX 1 25 Jul 23:57:05 00:01:21 54° 73° (ENE) 00:05:38 145.980
PHONESAT 2.4 25 Jul 23:59:48 00:01:51 16° 212° (SSW) 00:03:52 2401.200-2431.200
ANTELSAT 25 Jul 23:59:48 00:04:21 53° 286° (WNW) 00:08:45 437.575/2403.000
ISS 25 Jul 23:59:59 00:02:08 16° 338° (NNW) 00:04:16 145.825
CUBEBUG 1 26 Jul 00:02:34 00:06:51 72° 75° (ENE) 00:11:09 437.445
SPROUT 26 Jul 00:05:01 00:08:42 29° 70° (ENE) 00:12:24 437.525
QB50P2 26 Jul 00:05:33 00:09:12 27° 96° (E) 00:12:50 145.880/145.840
POLYITAN 1 26 Jul 00:08:10 00:11:52 27° 96° (E) 00:15:31 437.675
AISAT 26 Jul 00:41:53 00:46:02 43° 261° (W) 00:50:14 437.250
TIGRISAT 26 Jul 00:42:49 00:46:17 21° 293° (WNW) 00:49:41 435.000
AO-85 26 Jul 00:46:37 00:50:05 24° 249° (WSW) 00:53:21 145.980
DX 1 26 Jul 00:47:06 00:51:19 54° 259° (W) 00:55:35 434.975-435.025
NANOSAT C BR1 26 Jul 00:52:24 00:56:42 86° 103° (ESE) 01:00:58 145.865
DUCHIFAT 1 26 Jul 00:57:29 01:01:47 88° 273° (W) 01:06:01 145.980
UNISAT 6 26 Jul 00:59:35 01:01:56 14° 296° (WNW) 01:04:16 437.425
UKube-1 26 Jul 01:03:56 01:08:01 43° 260° (W) 01:12:09 .
TISAT 1 26 Jul 01:06:09 01:09:53 32° 71° (ENE) 01:13:40 437.305
50 SAT 26 Jul 01:08:29 01:10:54 17° 266° (W) 01:13:20 437.505
ESTCUBE 1 26 Jul 01:12:40 01:14:51 13° 268° (W) 01:17:03 437.505/2401.250
QB50P1 26 Jul 01:14:01 01:18:10 50° 286° (WNW) 01:22:18 145.935-145.965
Cosmos 2504 26 Jul 01:17:48 01:19:46 11° 286° (WNW) 01:21:44 435.465 / 435.565
BUGSAT 1 26 Jul 01:18:36 01:22:51 69° 101° (E) 01:27:05 437.445
POPSAT HIP 1 26 Jul 01:20:23 01:24:28 43° 287° (WNW) 01:28:30 437.405
AIST 1 26 Jul 01:32:58 01:37:18 69° 264° (W) 01:41:38
VELOX 1 26 Jul 01:36:21 01:38:07 12° 268° (W) 01:39:53 145.980
SPROUT 26 Jul 01:41:19 01:44:37 22° 265° (W) 01:47:56 437.525
QB50P2 26 Jul 01:41:25 01:44:53 24° 291° (WNW) 01:48:18 145.880/145.840
JAS-2 26 Jul 01:43:48 01:49:06 77° 103° (ESE) 01:54:52 435.910
POLYITAN 1 26 Jul 01:44:06 01:47:31 24° 292° (WNW) 01:50:56 437.675
Gurwin Techsat 1B 26 Jul 01:54:27 01:55:23 10° 89° (E) 01:56:18 435.225
SWISSCUBE 26 Jul 01:58:07 02:02:09 28° 68° (ENE) 02:06:12 437.505
BEESAT 26 Jul 02:19:09 02:23:37 41° 71° (ENE) 02:28:06 436.000
Oscar 19 26 Jul 02:22:21 02:27:23 50° 100° (E) 02:32:24 437.125/150
Cosmos 2499 26 Jul 02:24:42 02:30:36 23° 67° (ENE) 02:36:12 435.465 / 435.565
GONETS M04 26 Jul 02:36:09 02:44:26 43° 75° (ENE) 02:52:40
ITUPSAT 1 26 Jul 02:40:54 02:45:40 68° 75° (ENE) 02:50:27 437.325
TISAT 1 26 Jul 02:42:38 02:45:35 19° 266° (W) 02:48:34 437.305
BUGSAT 1 26 Jul 02:57:00 02:57:37 10° 297° (WNW) 02:58:14 437.445
MOZHAYETS 4 26 Jul 03:14:29 03:17:38 18° 66° (ENE) 03:20:47
ISS 26 Jul 03:15:39 03:17:19 13° 19° (NNE) 03:19:00 145.825
CUSAT 1 26 Jul 03:22:05 03:23:51 12° 94° (E) 03:25:29 437.405
Gurwin Techsat 1B 26 Jul 03:30:35 03:35:56 84° 284° (WNW) 03:41:14 435.225
JAS-2 26 Jul 03:31:24 03:33:39 13° 298° (WNW) 03:35:57 435.910
STARS 26 Jul 03:34:32 03:36:42 14° 64° (ENE) 03:38:53 437.465
SWISSCUBE 26 Jul 03:35:42 03:39:50 29° 263° (W) 03:44:00 437.505
BEESAT 3 26 Jul 03:41:01 03:44:22 25° 51° (NE) 03:47:41 437.485
BEESAT 2 26 Jul 03:44:45 03:47:19 16° 47° (NE) 03:49:53 435.950
ITAMSAT 1 26 Jul 03:53:29 03:58:33 51° 100° (E) 04:03:34 435.822/435.867
BEESAT 26 Jul 03:58:06 04:01:31 19° 266° (W) 04:04:58 436.000
AO-7 26 Jul 04:02:20 04:09:31 31° 97° (E) 04:16:36 29.400- 29.500
Oscar 19 26 Jul 04:02:42 04:06:19 19° 296° (WNW) 04:09:55 437.125/150
Cosmos 2499 26 Jul 04:16:41 04:24:25 64° 268° (W) 04:31:36 435.465 / 435.565
ITUPSAT 1 26 Jul 04:22:20 04:23:56 11° 269° (W) 04:25:32 437.325
KKS-1 26 Jul 04:25:37 04:30:03 80° 258° (WSW) 04:34:31 437.445
CUBESAT XI-V 26 Jul 04:30:54 04:33:14 14° 64° (ENE) 04:35:34 437.345
JUGNU 26 Jul 04:32:19 04:34:26 12° 180° (S) 04:36:33 437.505
GONETS M04 26 Jul 04:33:09 04:41:06 40° 273° (W) 04:49:05
MOZHAYETS 4 26 Jul 04:50:03 04:54:27 42° 262° (W) 04:58:52
ISS 26 Jul 04:51:04 04:54:18 61° 37° (NE) 04:57:31 145.825
PCSat 26 Jul 05:01:12 05:06:23 44° 57° (ENE) 05:11:32 145.827
CUSAT 1 26 Jul 05:01:41 05:05:46 35° 280° (W) 05:09:01 437.405
STARS 26 Jul 05:08:17 05:12:34 54° 259° (W) 05:16:54 437.465
DANDE 26 Jul 05:09:10 05:15:18 86° 101° (E) 05:19:50 436.750
Gurwin Techsat 1B 26 Jul 05:14:01 05:15:00 10° 301° (WNW) 05:15:59 435.225
BEESAT 3 26 Jul 05:18:39 05:21:59 26° 247° (WSW) 05:25:16 437.485
BEESAT 2 26 Jul 05:21:33 05:25:24 47° 244° (WSW) 05:29:13 435.950
ITAMSAT 1 26 Jul 05:34:02 05:37:35 19° 296° (WNW) 05:41:07 435.822/435.867
AIST 2 26 Jul 05:34:13 05:36:09 13° 44° (NE) 05:38:04 435.215
HORYU 2 26 Jul 05:42:25 05:46:32 34° 98° (E) 05:50:35 437.375
AO-7 26 Jul 05:54:28 06:02:34 56° 294° (WNW) 06:10:36 29.400- 29.500
RS-15 26 Jul 05:58:43 06:07:14 25° 100° (E) 06:16:00 29.354- 29.394
O/OREOS (USA 219) 26 Jul 06:01:02 06:02:46 12° 54° (NE) 06:04:31 437.305
CUBESAT XI-V 26 Jul 06:05:34 06:10:07 57° 260° (W) 06:14:40 437.345
LilacSat-2 26 Jul 06:28:29 06:30:16 13° 92° (E) 06:32:02 437.200
ISS 26 Jul 06:28:57 06:30:21 12° 232° (SW) 06:31:44 145.825
Cubesat XI-IV 26 Jul 06:38:27 06:42:32 22° 94° (E) 06:46:35 437.490
PCSat 26 Jul 06:45:13 06:49:28 24° 253° (WSW) 06:53:43 145.827
SRMSAT 26 Jul 06:46:33 06:48:36 12° 179° (S) 06:50:39 437.500
GOMX 1 26 Jul 06:47:39 06:51:42 23° 95° (E) 06:55:53 467.674
DOVE 4 26 Jul 06:49:56 06:51:04 11° 89° (E) 06:52:13 437.250
CUTE-I 26 Jul 07:01:54 07:06:50 37° 98° (E) 07:11:44 437.470
STRAND 1 26 Jul 07:03:17 07:07:57 36° 69° (ENE) 07:12:38 437.568
AIST 2 26 Jul 07:10:57 07:15:06 74° 242° (WSW) 07:19:15 435.215
BRITE-PL 26 Jul 07:16:08 07:20:58 86° 283° (WNW) 07:26:12 437.365/2234.400
HORYU 2 26 Jul 07:19:31 07:22:50 21° 293° (WNW) 07:26:08 437.375
NOAA 15 26 Jul 07:26:03 07:31:21 85° 104° (ESE) 07:36:37 137.62
NOAA 18 26 Jul 07:26:53 07:32:24 62° 102° (ESE) 07:37:51 137.9125
O/OREOS (USA 219) 26 Jul 07:38:09 07:42:40 71° 252° (WSW) 07:47:12 437.305
SO-50 26 Jul 07:45:04 07:48:03 16° 109° (ESE) 07:51:03 436.795
AO-7 26 Jul 07:50:55 07:53:30 12° 314° (NW) 07:56:05 29.400- 29.500
PRISM 26 Jul 07:59:46 08:02:00 14° 65° (ENE) 08:04:14 437.425
LilacSat-2 26 Jul 08:01:06 08:04:44 39° 287° (WNW) 08:08:20 437.200
Cosmos 2491 26 Jul 08:05:10 08:11:46 23° 67° (ENE) 08:18:19 435.465 / 435.565
RS-15 26 Jul 08:06:42 08:18:09 82° 301° (WNW) 08:30:19 29.354- 29.394
Cubesat XI-IV 26 Jul 08:17:43 08:22:46 44° 290° (WNW) 08:27:47 437.490
DOVE 4 26 Jul 08:24:04 08:29:14 84° 284° (WNW) 08:34:32 437.250
GOMX 1 26 Jul 08:25:08 08:29:48 40° 288° (WNW) 08:34:43 467.674
CUTE-I 26 Jul 08:42:18 08:46:41 26° 294° (WNW) 08:51:03 437.470
STRAND 1 26 Jul 08:42:57 08:47:10 25° 265° (W) 08:51:23 437.568
HO-68 26 Jul 08:44:10 08:50:57 42° 99° (E) 08:57:38 435.675
CINEMA 3 26 Jul 08:44:52 08:49:44 48° 98° (E) 08:54:33 145.822/145.860
CANX-2 26 Jul 08:47:04 08:51:05 42° 98° (E) 08:55:04 2200.000
AAUSAT CUBESAT 2 26 Jul 08:51:32 08:53:54 15° 93° (E) 08:56:15 437.432
CUTE 1.7 + AOD 2 26 Jul 09:00:40 09:04:47 53° 100° (E) 09:08:53 437.475
NOAA 15 26 Jul 09:08:25 09:10:22 12° 300° (WNW) 09:12:19 137.62
NOAA 18 26 Jul 09:08:55 09:12:30 18° 298° (WNW) 09:16:04 137.9125
SO-50 26 Jul 09:23:16 09:28:04 57° 304° (NW) 09:32:52 436.795
ANTELSAT 26 Jul 09:23:34 09:25:00 11° 62° (ENE) 09:26:27 437.575/2403.000
YUBILEINY 26 Jul 09:31:58 09:39:38 36° 85° (E) 09:47:21 435.215
PRISM 26 Jul 09:33:04 09:36:56 42° 261° (W) 09:40:49 437.425
UWE-3 26 Jul 09:40:42 09:44:56 35° 97° (E) 09:49:03 435.000/436.395/437.385
SEEDS 26 Jul 09:42:01 09:46:10 70° 284° (WNW) 09:50:18 437.485
FUNcube-1 26 Jul 09:44:08 09:47:40 23° 94° (E) 09:51:07 145.935
ZACube-1 26 Jul 09:44:18 09:47:59 24° 94° (E) 09:51:34 437.345
COMPASS 1 26 Jul 09:55:59 10:00:07 70° 283° (WNW) 10:04:11 437.405
CUBEBUG 2 26 Jul 10:00:01 10:04:47 88° 103° (ESE) 10:09:23 437.445
Cosmos 2491 26 Jul 10:00:41 10:09:25 73° 266° (W) 10:18:08 435.465 / 435.565
TIGRISAT 26 Jul 10:02:45 10:06:38 28° 69° (ENE) 10:10:36 435.000
Cosmos 2504 26 Jul 10:05:09 10:10:42 19° 79° (ENE) 10:16:16 435.465 / 435.565
DOVE 4 26 Jul 10:05:32 10:06:08 10° 299° (WNW) 10:06:44 437.250
UNISAT 6 26 Jul 10:18:12 10:22:33 42° 72° (ENE) 10:26:58 437.425
CINEMA 3 26 Jul 10:22:57 10:26:28 19° 294° (WNW) 10:29:57 145.822/145.860
RS-15 26 Jul 10:23:03 10:32:48 29° 329° (NNW) 10:42:57 29.354- 29.394
CANX-2 26 Jul 10:24:06 10:26:34 15° 294° (WNW) 10:29:02 2200.000
AAUSAT CUBESAT 2 26 Jul 10:25:42 10:29:32 39° 287° (WNW) 10:33:21 437.432
M-CUBED/EXP-1 PRIME 26 Jul 10:26:37 10:30:15 22° 99° (E) 10:33:52 437.505
Oscar 11 26 Jul 10:27:34 10:31:54 79° 102° (ESE) 10:36:11 145.826/435.025
HO-68 26 Jul 10:32:05 10:38:30 36° 296° (WNW) 10:44:52 435.675
CUTE 1.7 + AOD 2 26 Jul 10:38:21 10:40:09 13° 295° (WNW) 10:41:56 437.475
AUBIESAT-1 26 Jul 10:53:16 10:57:29 34° 102° (ESE) 11:01:39 437.475
ANTELSAT 26 Jul 10:56:26 11:01:02 75° 259° (WSW) 11:05:44 437.575/2403.000
QB50P2 26 Jul 10:57:28 11:00:19 18° 67° (ENE) 11:03:11 145.880/145.840
DELFI C3 26 Jul 10:57:31 11:01:28 75° 100° (E) 11:05:23 145.870
POLYITAN 1 26 Jul 11:00:02 11:02:56 18° 67° (ENE) 11:05:52 437.675
HUMSAT D 26 Jul 11:08:13 11:12:14 43° 99° (E) 11:16:11 437.325/437.525
UWE-3 26 Jul 11:17:40 11:21:07 21° 293° (WNW) 11:24:31 435.000/436.395/437.385
FUNcube-1 26 Jul 11:19:59 11:23:54 30° 290° (WNW) 11:27:44 145.935
ZACube-1 26 Jul 11:20:22 11:24:13 28° 291° (WNW) 11:27:59 437.345
YUBILEINY 26 Jul 11:27:46 11:36:06 48° 284° (WNW) 11:44:35 435.215
ESTCUBE 1 26 Jul 11:29:22 11:31:05 12° 91° (E) 11:32:47 437.505/2401.250
TIGRISAT 26 Jul 11:39:18 11:43:13 27° 265° (W) 11:47:13 435.000
NANOSAT C BR1 26 Jul 11:42:50 11:46:55 50° 74° (ENE) 11:51:02 145.865
DUCHIFAT 1 26 Jul 11:47:37 11:51:43 54° 74° (ENE) 11:55:52 145.980
VELOX 1 26 Jul 11:50:50 11:52:16 11° 91° (E) 11:53:43 145.980
CUBEBUG 1 26 Jul 11:53:51 11:56:23 15° 93° (E) 11:58:54 437.445
Cosmos 2504 26 Jul 11:54:03 12:02:54 86° 277° (W) 12:11:50 435.465 / 435.565
JAS-2 26 Jul 11:55:27 12:00:29 28° 68° (ENE) 12:05:06 435.910
UNISAT 6 26 Jul 11:56:20 11:59:25 18° 268° (W) 12:02:33 437.425
M-CUBED/EXP-1 PRIME 26 Jul 12:00:27 12:04:48 39° 293° (WNW) 12:09:09 437.505
Cosmos 2491 26 Jul 12:01:52 12:04:35 12° 285° (WNW) 12:07:18 435.465 / 435.565
QB50P1 26 Jul 12:04:28 12:08:41 84° 255° (WSW) 12:12:59 145.935-145.965
BUGSAT 1 26 Jul 12:06:55 12:10:40 37° 71° (ENE) 12:14:29 437.445
POPSAT HIP 1 26 Jul 12:10:50 12:15:03 72° 258° (WSW) 12:19:19 437.405
AUBIESAT-1 26 Jul 12:27:57 12:31:43 25° 297° (WNW) 12:35:28 437.475
QB50P2 26 Jul 12:31:53 12:35:49 37° 262° (W) 12:39:47 145.880/145.840
AISAT 26 Jul 12:33:14 12:37:23 37° 98° (E) 12:41:32 437.250
POLYITAN 1 26 Jul 12:34:32 12:38:27 36° 262° (W) 12:42:25 437.675
DX 1 26 Jul 12:36:53 12:40:38 27° 97° (E) 12:44:23 434.975-435.025
50 SAT 26 Jul 12:37:10 12:40:35 39° 99° (E) 12:43:57 437.505
RS-15 26 Jul 12:43:26 12:51:17 19° 4° (N) 12:59:14 29.354- 29.394
HUMSAT D 26 Jul 12:45:07 12:47:27 15° 294° (WNW) 12:49:46 437.325/437.525
UKube-1 26 Jul 12:52:23 12:56:17 32° 98° (E) 13:00:10 .
ESTCUBE 1 26 Jul 13:03:49 13:08:13 57° 286° (WNW) 13:12:36 437.505/2401.250
Gurwin Techsat 1B 26 Jul 13:12:51 13:16:07 17° 63° (ENE) 13:19:24 435.225
AO-85 26 Jul 13:19:15 13:22:37 17° 108° (ESE) 13:25:57 145.980
NANOSAT C BR1 26 Jul 13:21:12 13:22:55 12° 269° (W) 13:24:39 145.865
VELOX 1 26 Jul 13:24:42 13:29:05 59° 286° (WNW) 13:33:27 145.980
DUCHIFAT 1 26 Jul 13:26:19 13:27:43 11° 269° (W) 13:29:07 145.980
SPROUT 26 Jul 13:27:24 13:31:43 69° 101° (E) 13:36:00 437.525
CUBEBUG 1 26 Jul 13:28:40 13:32:52 45° 287° (WNW) 13:37:04 437.445
Oscar 19 26 Jul 13:37:43 13:42:45 62° 73° (ENE) 13:47:49 437.125/150
JAS-2 26 Jul 13:39:40 13:45:25 39° 261° (W) 13:50:38 435.910
BUGSAT 1 26 Jul 13:43:43 13:46:11 15° 267° (W) 13:48:40 437.445
Cosmos 2504 26 Jul 13:51:59 13:57:32 18° 296° (WNW) 14:03:07 435.465 / 435.565
AIST 1 26 Jul 14:00:29 14:04:42 74° 95° (E) 14:08:57
AISAT 26 Jul 14:10:25 14:13:35 19° 293° (WNW) 14:16:43 437.250
50 SAT 26 Jul 14:12:32 14:13:50 12° 294° (WNW) 14:15:07 437.505
DX 1 26 Jul 14:13:09 14:16:42 24° 292° (WNW) 14:20:14 434.975-435.025
BEESAT 26 Jul 14:23:08 14:24:28 11° 90° (E) 14:25:48 436.000
TISAT 1 26 Jul 14:26:20 14:30:36 73° 101° (E) 14:34:50 437.305
UKube-1 26 Jul 14:28:52 14:32:07 21° 293° (WNW) 14:35:21 .
ITUPSAT 1 26 Jul 14:43:49 14:47:13 19° 94° (E) 14:50:34 437.325
Gurwin Techsat 1B 26 Jul 14:50:16 14:55:32 62° 259° (WSW) 15:00:49 435.225
AO-85 26 Jul 14:57:18 15:02:41 64° 303° (WNW) 15:07:49 145.980
RS-15 26 Jul 14:58:08 15:09:10 36° 39° (NE) 15:20:06 29.354- 29.394
Cosmos 2499 26 Jul 14:59:28 15:05:35 21° 80° (E) 15:11:39 435.465 / 435.565
AO-7 26 Jul 14:59:41 15:07:13 39° 61° (ENE) 15:14:46 29.400- 29.500
SPROUT 26 Jul 15:06:16 15:07:03 10° 297° (WNW) 15:07:49 437.525
ITAMSAT 1 26 Jul 15:09:51 15:15:02 69° 74° (ENE) 15:20:15 435.822/435.867
Oscar 19 26 Jul 15:19:52 15:22:28 14° 269° (W) 15:25:06 437.125/150
CUSAT 1 26 Jul 15:34:28 15:37:27 77° 261° (W) 15:41:12 437.405
GONETS M04 26 Jul 15:35:15 15:43:30 51° 89° (E) 15:51:47
SWISSCUBE 26 Jul 15:36:25 15:41:11 80° 101° (ESE) 15:45:56 437.505
DANDE 26 Jul 15:49:39 15:52:02 30° 79° (E) 15:54:37 436.750
BEESAT 26 Jul 15:57:57 16:02:42 69° 285° (WNW) 16:07:24 436.000
SO-50 26 Jul 16:17:39 16:19:37 12° 40° (NE) 16:21:34 436.795
KKS-1 26 Jul 16:18:38 16:22:06 22° 95° (E) 16:25:33 437.445
ITUPSAT 1 26 Jul 16:20:44 16:25:11 41° 289° (WNW) 16:29:37 437.325
PHONESAT 2.4 26 Jul 16:30:27 16:30:52 10° 144° (SE) 16:31:18 2401.200-2431.200
HORYU 2 26 Jul 16:39:07 16:42:55 28° 69° (ENE) 16:46:45 437.375
AO-85 26 Jul 16:42:15 16:44:03 12° 321° (NW) 16:45:51 145.980
MOZHAYETS 4 26 Jul 16:46:16 16:50:42 48° 99° (E) 16:55:05
Cosmos 2499 26 Jul 16:48:51 16:57:46 78° 278° (W) 17:06:31 435.465 / 435.565
AO-7 26 Jul 16:51:50 16:59:46 47° 259° (W) 17:07:47 29.400- 29.500
ITAMSAT 1 26 Jul 16:52:34 16:54:57 13° 269° (W) 16:57:21 435.822/435.867
STARS 26 Jul 16:59:16 17:03:09 29° 97° (E) 17:07:01 437.465
NOAA 15 26 Jul 17:08:04 17:10:49 15° 61° (ENE) 17:13:34 137.62
RS-15 26 Jul 17:10:39 17:23:01 80° 243° (WSW) 17:35:10 29.354- 29.394
NOAA 18 26 Jul 17:14:39 17:17:22 14° 59° (ENE) 17:20:04 137.9125
SWISSCUBE 26 Jul 17:17:06 17:18:17 11° 299° (WNW) 17:19:30 437.505
GONETS M04 26 Jul 17:32:58 17:40:33 33° 288° (WNW) 17:48:14
KKS-1 26 Jul 17:54:41 17:58:42 32° 290° (WNW) 18:02:41 437.445
GOMX 1 26 Jul 17:55:55 17:58:36 17° 66° (ENE) 18:01:21 467.674
SO-50 26 Jul 17:56:12 18:00:50 86° 54° (NE) 18:05:19 436.795
Cubesat XI-IV 26 Jul 17:58:48 18:03:32 32° 68° (ENE) 18:08:16 437.490
CUBESAT XI-V 26 Jul 18:03:31 18:07:49 38° 98° (E) 18:12:07 437.345
PHONESAT 2.4 26 Jul 18:03:54 18:06:54 51° 159° (SSE) 18:09:55 2401.200-2431.200
HORYU 2 26 Jul 18:15:42 18:19:24 25° 264° (W) 18:23:09 437.375
CUTE-I 26 Jul 18:22:07 18:27:20 53° 72° (ENE) 18:32:34 437.470
MOZHAYETS 4 26 Jul 18:24:42 18:27:26 16° 295° (WNW) 18:30:11
BRITE-PL 26 Jul 18:26:22 18:30:32 88° 257° (WSW) 18:34:42 437.365/2234.400
STARS 26 Jul 18:35:48 18:39:21 24° 292° (WNW) 18:42:54 437.465
LilacSat-2 26 Jul 18:40:59 18:44:50 78° 77° (ENE) 18:48:44 437.200
NOAA 15 26 Jul 18:44:45 18:49:58 70° 258° (WSW) 18:55:13 137.62
Cosmos 2499 26 Jul 18:47:25 18:52:14 15° 297° (WNW) 18:57:02 435.465 / 435.565
NOAA 18 26 Jul 18:51:44 18:57:16 81° 256° (WSW) 19:02:52 137.9125
BEESAT 3 26 Jul 19:06:58 19:10:51 70° 118° (ESE) 19:14:47 437.485
BEESAT 2 26 Jul 19:11:53 19:15:34 39° 115° (ESE) 19:19:17 435.950
HO-68 26 Jul 19:11:56 19:17:48 28° 61° (ENE) 19:23:40 435.675
STRAND 1 26 Jul 19:16:54 19:19:14 13° 91° (E) 19:21:33 437.568
RS-15 26 Jul 19:26:13 19:33:27 18° 263° (W) 19:40:39 29.354- 29.394
DOVE 4 26 Jul 19:28:24 19:32:38 82° 75° (ENE) 19:37:07 437.250
GOMX 1 26 Jul 19:32:34 19:36:24 36° 263° (W) 19:40:22 467.674
CANX-2 26 Jul 19:38:37 19:42:09 26° 70° (ENE) 19:45:42 2200.000
Cubesat XI-IV 26 Jul 19:38:50 19:43:32 30° 264° (W) 19:48:16 437.490
PHONESAT 2.4 26 Jul 19:40:22 19:43:25 60° 354° (N) 19:46:29 2401.200-2431.200
PCSat 26 Jul 19:41:08 19:46:23 54° 113° (ESE) 19:51:40 145.827
CUBESAT XI-V 26 Jul 19:41:36 19:44:55 20° 293° (WNW) 19:48:15 437.345
YUBILEINY 26 Jul 19:44:53 19:49:47 16° 62° (ENE) 19:54:37 435.215
CINEMA 3 26 Jul 19:45:08 19:49:11 34° 70° (ENE) 19:53:25 145.822/145.860
CUTE 1.7 + AOD 2 26 Jul 19:51:54 19:55:41 31° 71° (ENE) 19:59:27 437.475
CUTE-I 26 Jul 20:04:04 20:07:40 18° 267° (W) 20:11:17 437.470
O/OREOS (USA 219) 26 Jul 20:11:49 20:14:22 15° 99° (E) 20:16:57 437.305
SEEDS 26 Jul 20:31:48 20:36:00 64° 75° (ENE) 20:40:11 437.485
UWE-3 26 Jul 20:36:15 20:39:58 25° 68° (ENE) 20:43:45 435.000/436.395/437.385
FUNcube-1 26 Jul 20:38:45 20:41:35 16° 65° (ENE) 20:44:24 145.935
ZACube-1 26 Jul 20:39:06 20:42:07 18° 66° (ENE) 20:45:09 437.345
COMPASS 1 26 Jul 20:44:50 20:48:58 62° 75° (ENE) 20:53:06 437.405
BEESAT 3 26 Jul 20:47:25 20:48:59 12° 316° (NW) 20:50:34 437.485
BEESAT 2 26 Jul 20:50:45 20:53:33 18° 312° (NW) 20:56:23 435.950
STRAND 1 26 Jul 20:53:45 20:58:50 66° 286° (WNW) 21:03:52 437.568
CUBEBUG 2 26 Jul 20:56:05 21:00:34 60° 74° (ENE) 21:05:12 437.445
HO-68 26 Jul 20:58:04 21:05:04 56° 258° (WSW) 21:12:08 435.675
Cosmos 2491 26 Jul 21:05:17 21:12:09 27° 82° (E) 21:19:00 435.465 / 435.565
AIST 2 26 Jul 21:07:16 21:10:54 31° 114° (ESE) 21:14:33 435.215
M-CUBED/EXP-1 PRIME 26 Jul 21:12:27 21:15:04 18° 60° (ENE) 21:17:48 437.505
AAUSAT CUBESAT 2 26 Jul 21:13:46 21:17:55 75° 258° (WSW) 21:22:05 437.432
CANX-2 26 Jul 21:14:24 21:17:55 25° 265° (W) 21:21:27 2200.000
PRISM 26 Jul 21:16:05 21:19:32 26° 97° (E) 21:23:00 437.425
PHONESAT 2.4 26 Jul 21:17:00 21:20:05 74° 12° (NNE) 21:23:10 2401.200-2431.200
Oscar 11 26 Jul 21:20:35 21:24:46 49° 74° (ENE) 21:28:59 145.826/435.025
CINEMA 3 26 Jul 21:23:01 21:26:24 21° 267° (W) 21:29:55 145.822/145.860
PCSat 26 Jul 21:25:54 21:30:06 22° 311° (NW) 21:34:20 145.827
CUTE 1.7 + AOD 2 26 Jul 21:28:22 21:31:32 20° 266° (W) 21:34:43 437.475
ISS 26 Jul 21:29:25 21:32:28 39° 135° (SE) 21:35:32 145.825
AUBIESAT-1 26 Jul 21:38:16 21:41:32 28° 64° (ENE) 21:45:03 437.475
YUBILEINY 26 Jul 21:39:08 21:48:02 82° 83° (E) 21:56:51 435.215
DELFI C3 26 Jul 21:41:58 21:45:34 34° 72° (ENE) 21:49:10 145.870
O/OREOS (USA 219) 26 Jul 21:49:05 21:53:21 44° 295° (WNW) 21:57:39 437.305
Cosmos 2504 26 Jul 21:50:05 21:57:11 32° 71° (ENE) 22:03:49 435.465 / 435.565
HUMSAT D 26 Jul 21:58:06 22:01:41 26° 70° (ENE) 22:05:16 437.325/437.525
